EW1232 Weather Reports


time (UTC)temp
C
wind
direction
speed
KPH
gust
KPH
rain 1hr
cm
rain 24hr
cm
rain mn
cm
humidity
%
barometer
mb
20260903011021 27 193 1.6 6.4 0.00 0.00 0.00 73 1016.9
20260903010518 27 187 1.6 8.0 0.00 0.00 0.00 73 1016.9
20260903010042 28 0 3.2 8.0 0.00 0.00 0.00 72 1016.8
20260903005521 28 169 1.6 6.4 0.00 0.00 0.00 72 1016.8
20260903005022 28 198 1.6 6.4 0.00 0.00 0.00 71 1016.7
20260903004550 28 187 1.6 6.4 0.00 0.00 0.00 70 1016.7
20260903004023 28 0 0.0 6.4 0.00 0.00 0.00 70 1016.7
20260903003524 29 251 0.0 6.4 0.00 0.00 0.00 69 1016.8
20260903003059 29 205 1.6 6.4 0.00 0.00 0.00 69 1016.7
20260903002521 29 248 0.0 4.8 0.00 0.00 0.00 68 1016.7
20260903002019 30 0 0.0 6.4 0.00 0.00 0.00 68 1016.6
20260903001542 30 178 1.6 8.0 0.00 0.00 0.00 67 1016.6
20260903001021 30 178 1.6 8.0 0.00 0.00 0.00 66 1016.7
20260903000521 30 0 3.2 8.0 0.00 0.00 0.00 65 1016.7
20260903000053 30 178 1.6 4.8 0.00 0.00 0.00 65 1016.7
20260902235521 31 0 1.6 3.2 0.00 0.00 0.00 64 1016.6
20260902235019 31 193 0.0 4.8 0.00 0.00 0.00 63 1016.6
20260902234545 31 0 0.0 6.4 0.00 0.00 0.00 62 1016.7
20260902234018 31 0 1.6 8.0 0.00 0.00 0.00 62 1016.6
20260902233521 31 200 1.6 11.3 0.00 0.00 0.00 61 1016.7
20260902233042 31 234 1.6 11.3 0.00 0.00 0.00 61 1016.6
20260902232522 31 230 3.2 8.0 0.00 0.00 0.00 60 1016.6
20260902232021 32 226 3.2 16.1 0.00 0.00 0.00 59 1016.5
20260902231546 32 187 3.2 16.1 0.00 0.00 0.00 58 1016.6
20260902231021 32 252 4.8 16.1 0.00 0.00 0.00 57 1016.7
20260902230520 32 248 4.8 12.9 0.00 0.00 0.00 58 1016.6
20260902230047 32 227 4.8 12.9 0.00 0.00 0.00 57 1016.7
20260902225518 32 0 3.2 11.3 0.00 0.00 0.00 58 1016.7
20260902225027 33 265 3.2 11.3 0.00 0.00 0.00 57 1016.7
20260902224602 33 221 1.6 11.3 0.00 0.00 0.00 56 1016.7
20260902224019 33 0 4.8 12.9 0.00 0.00 0.00 55 1016.8
20260902223518 33 265 4.8 12.9 0.00 0.00 0.00 55 1016.8
20260902223044 33 255 3.2 16.1 0.00 0.00 0.00 56 1016.8
20260902222519 33 259 4.8 16.1 0.00 0.00 0.00 55 1016.8
20260902222024 33 282 6.4 14.5 0.00 0.00 0.00 55 1016.8
20260902221544 33 195 4.8 14.5 0.00 0.00 0.00 54 1016.8
20260902221021 33 246 3.2 19.3 0.00 0.00 0.00 54 1016.8
20260902220523 33 51 4.8 19.3 0.00 0.00 0.00 54 1016.8
20260902220046 34 162 6.4 12.9 0.00 0.00 0.00 54 1017.0
20260902215518 34 251 1.6 11.3 0.00 0.00 0.00 55 1016.9
20260902215024 34 144 4.8 14.5 0.00 0.00 0.00 54 1016.9
20260902214610 33 236 1.6 16.1 0.00 0.00 0.00 56 1016.9
20260902214021 33 255 4.8 16.1 0.00 0.00 0.00 54 1017.0
20260902213524 33 250 6.4 16.1 0.00 0.00 0.00 54 1017.0
20260902213042 33 51 1.6 12.9 0.00 0.00 0.00 59 1017.0
20260902212521 33 212 1.6 12.9 0.00 0.00 0.00 56 1016.9
20260902212027 33 208 4.8 12.9 0.00 0.00 0.00 55 1017.0
20260902211540 33 171 4.8 12.9 0.00 0.00 0.00 55 1017.1
20260902211018 34 265 4.8 12.9 0.00 0.00 0.00 54 1017.1
20260902210523 33 235 4.8 19.3 0.00 0.00 0.00 54 1017.1
20260902210047 34 265 3.2 19.3 0.00 0.00 0.00 53 1017.0
20260902205521 34 238 8.0 19.3 0.00 0.00 0.00 51 1017.2
20260902205021 35 254 4.8 16.1 0.00 0.00 0.00 51 1017.2
20260902204543 35 239 3.2 16.1 0.00 0.00 0.00 54 1017.2
20260902204025 35 309 3.2 16.1 0.00 0.00 0.00 53 1017.3
20260902203521 34 265 6.4 17.7 0.00 0.00 0.00 52 1017.3
20260902203043 35 265 6.4 17.7 0.00 0.00 0.00 53 1017.3
20260902202520 35 238 4.8 11.3 0.00 0.00 0.00 51 1017.3
20260902202024 35 233 3.2 14.5 0.00 0.00 0.00 53 1017.3
20260902201551 35 296 1.6 14.5 0.00 0.00 0.00 53 1017.3
20260902201018 35 30 3.2 14.5 0.00 0.00 0.00 52 1017.3
20260902200523 35 254 6.4 14.5 0.00 0.00 0.00 50 1017.4
20260902200037 35 309 4.8 14.5 0.00 0.00 0.00 52 1017.4
20260902195521 35 239 3.2 12.9 0.00 0.00 0.00 52 1017.5
20260902195020 35 261 1.6 12.9 0.00 0.00 0.00 53 1017.5
20260902194549 34 273 3.2 16.1 0.00 0.00 0.00 52 1017.7
20260902194018 34 289 4.8 27.4 0.00 0.00 0.00 49 1017.7
20260902193520 35 246 6.4 27.4 0.00 0.00 0.00 52 1017.6
20260902193043 34 232 3.2 17.7 0.00 0.00 0.00 53 1017.8
20260902192517 34 279 4.8 17.7 0.00 0.00 0.00 50 1017.8
20260902192020 34 254 4.8 16.1 0.00 0.00 0.00 52 1018.0
20260902191541 34 275 3.2 16.1 0.00 0.00 0.00 53 1018.0
20260902191024 34 273 4.8 24.1 0.00 0.00 0.00 52 1018.0
20260902190519 34 195 4.8 24.1 0.00 0.00 0.00 52 1018.1
20260902190039 34 239 4.8 14.5 0.00 0.00 0.00 55 1018.1
20260902185519 33 265 3.2 16.1 0.00 0.00 0.00 53 1018.2
20260902185023 33 9 4.8 19.3 0.00 0.00 0.00 54 1018.2
20260902184544 33 286 6.4 24.1 0.00 0.00 0.00 54 1018.2
20260902184018 33 255 6.4 24.1 0.00 0.00 0.00 52 1018.2
20260902183523 33 239 4.8 17.7 0.00 0.00 0.00 56 1018.3
20260902183043 33 250 6.4 20.9 0.00 0.00 0.00 55 1018.3
20260902182520 34 219 6.4 20.9 0.00 0.00 0.00 53 1018.3
20260902182021 34 246 4.8 20.9 0.00 0.00 0.00 53 1018.3
20260902181544 33 169 8.0 19.3 0.00 0.00 0.00 57 1018.3
20260902181018 33 146 3.2 12.9 0.00 0.00 0.00 60 1018.3
20260902180526 33 226 4.8 17.7 0.00 0.00 0.00 57 1018.4
20260902180047 33 336 4.8 17.7 0.00 0.00 0.00 56 1018.5
20260902175525 33 259 4.8 16.1 0.00 0.00 0.00 58 1018.6
20260902175024 33 265 6.4 16.1 0.00 0.00 0.00 55 1018.6
20260902174549 33 232 4.8 14.5 0.00 0.00 0.00 56 1018.8
20260902174024 33 243 4.8 14.5 0.00 0.00 0.00 60 1018.8
20260902173523 33 273 3.2 16.1 0.00 0.00 0.00 61 1018.9
20260902173043 33 165 6.4 16.1 0.00 0.00 0.00 60 1018.9
20260902172525 33 288 3.2 16.1 0.00 0.00 0.00 60 1019.1
20260902172023 32 226 3.2 12.9 0.00 0.00 0.00 60 1019.0
20260902171544 32 248 3.2 14.5 0.00 0.00 0.00 59 1019.1
20260902171024 32 282 3.2 14.5 0.00 0.00 0.00 59 1019.1
20260902170527 33 225 4.8 11.3 0.00 0.00 0.00 57 1019.1
20260902170042 33 288 3.2 9.7 0.00 0.00 0.00 61 1019.1
20260902165524 32 205 1.6 11.3 0.00 0.00 0.00 61 1019.1
20260902165019 32 85 1.6 20.9 0.00 0.00 0.00 60 1019.1
20260902164549 32 205 8.0 20.9 0.00 0.00 0.00 59 1019.2
20260902164024 32 195 6.4 16.1 0.00 0.00 0.00 59 1019.2
20260902163524 32 209 6.4 16.1 0.00 0.00 0.00 61 1019.2
20260902163044 32 221 3.2 17.7 0.00 0.00 0.00 62 1019.2
20260902162526 32 219 8.0 17.7 0.00 0.00 0.00 63 1019.3
20260902162024 32 200 4.8 14.5 0.00 0.00 0.00 64 1019.2
20260902161543 32 128 6.4 19.3 0.00 0.00 0.00 64 1019.2
20260902161028 32 234 6.4 19.3 0.00 0.00 0.00 63 1019.2
20260902160529 32 250 4.8 12.9 0.00 0.00 0.00 63 1019.2
20260902160040 31 228 3.2 14.5 0.00 0.00 0.00 65 1019.3
20260902155524 31 233 1.6 14.5 0.00 0.00 0.00 66 1019.3
20260902155025 31 238 4.8 17.7 0.00 0.00 0.00 64 1019.3
20260902154543 31 230 8.0 17.7 0.00 0.00 0.00 65 1019.4
20260902154024 31 196 3.2 16.1 0.00 0.00 0.00 67 1019.4
20260902153526 31 269 3.2 16.1 0.00 0.00 0.00 66 1019.5
20260902153042 31 298 3.2 14.5 0.00 0.00 0.00 67 1019.5
20260902152518 31 137 4.8 14.5 0.00 0.00 0.00 66 1019.4
20260902152019 31 202 6.4 14.5 0.00 0.00 0.00 67 1019.5
20260902151544 31 309 1.6 11.3 0.00 0.00 0.00 69 1019.5
20260902151026 30 256 3.2 11.3 0.00 0.00 0.00 68 1019.5
20260902150525 30 296 3.2 12.9 0.00 0.00 0.00 69 1019.5
20260902150042 30 232 3.2 12.9 0.00 0.00 0.00 69 1019.5
20260902145519 30 209 4.8 12.9 0.00 0.00 0.00 70 1019.5
20260902145020 30 165 1.6 12.9 0.00 0.00 0.00 71 1019.5
20260902144552 30 266 3.2 12.9 0.00 0.00 0.00 71 1019.5
20260902144022 29 232 4.8 14.5 0.00 0.00 0.00 69 1019.6
20260902143523 29 200 3.2 14.5 0.00 0.00 0.00 72 1019.5
20260902143041 29 237 3.2 11.3 0.00 0.00 0.00 71 1019.4
20260902142521 29 235 1.6 12.9 0.00 0.00 0.00 73 1019.5
20260902142019 28 239 3.2 12.9 0.00 0.00 0.00 73 1019.4
20260902141538 28 325 6.4 14.5 0.00 0.00 0.00 72 1019.5
20260902141018 28 254 3.2 14.5 0.00 0.00 0.00 74 1019.4
20260902140518 28 250 4.8 14.5 0.00 0.00 0.00 74 1019.3
20260902140043 28 262 4.8 14.5 0.00 0.00 0.00 75 1019.4
20260902135518 28 232 4.8 14.5 0.00 0.00 0.00 74 1019.4
20260902135019 27 269 3.2 16.1 0.00 0.00 0.00 76 1019.4
20260902134542 27 221 6.4 16.1 0.00 0.00 0.00 76 1019.5
20260902134017 27 243 3.2 12.9 0.00 0.00 0.00 78 1019.4
20260902133526 27 205 4.8 12.9 0.00 0.00 0.00 78 1019.5
20260902133054 27 254 3.2 8.0 0.00 0.00 0.00 80 1019.4
20260902132519 26 265 1.6 8.0 0.00 0.00 0.00 82 1019.4
20260902132024 26 26 3.2 9.7 0.00 0.00 0.00 82 1019.4
20260902131539 26 0 1.6 9.7 0.00 0.00 0.00 83 1019.4
20260902131019 25 273 3.2 8.0 0.00 0.00 0.00 85 1019.3
20260902130519 25 196 1.6 8.0 0.00 0.00 0.00 86 1019.4
20260902130039 25 212 3.2 11.3 0.00 0.00 0.00 87 1019.5
20260902125521 25 243 3.2 11.3 0.00 0.00 0.00 88 1019.5
20260902125018 24 205 3.2 12.9 0.00 0.00 0.00 89 1019.4
20260902124542 24 209 4.8 12.9 0.00 0.00 0.00 90 1019.4
20260902124018 23 265 4.8 12.9 0.00 0.00 0.00 91 1019.3
20260902123518 23 225 3.2 9.7 0.00 0.00 0.00 92 1019.4
20260902123042 23 198 1.6 8.0 0.00 0.00 0.00 92 1019.3
20260902122527 23 218 3.2 11.3 0.00 0.00 0.00 93 1019.1
20260902122018 23 225 3.2 11.3 0.00 0.00 0.00 93 1019.1
20260902121543 22 178 3.2 9.7 0.00 0.00 0.00 93 1019.2
20260902121022 22 146 1.6 8.0 0.00 0.00 0.00 93 1019.2
20260902120518 22 205 1.6 8.0 0.00 0.00 0.00 93 1019.1
20260902120043 22 156 1.6 9.7 0.00 0.00 0.00 93 1019.2
20260902115523 22 178 3.2 9.7 0.00 0.00 0.00 93 1019.1
20260902115018 22 178 1.6 6.4 0.00 0.00 0.00 93 1019.1
20260902114549 22 165 1.6 6.4 0.00 0.00 0.00 93 1019.0
20260902114021 22 115 1.6 6.4 0.00 0.00 0.00 93 1018.8
20260902113523 22 195 0.0 4.8 0.00 0.00 0.00 93 1018.7
20260902113052 22 0 1.6 6.4 0.00 0.00 0.00 93 1018.7
20260902112524 22 0 1.6 8.0 0.00 0.00 0.00 93 1018.6
20260902112024 22 0 0.0 8.0 0.00 0.00 0.00 93 1018.6
20260902111540 22 265 3.2 11.3 0.00 0.00 0.00 94 1018.6
20260902111023 22 153 3.2 11.3 0.00 0.00 0.00 94 1018.5
20260902110524 22 169 3.2 9.7 0.00 0.00 0.00 94 1018.5
20260902110042 22 153 3.2 9.7 0.00 0.00 0.00 94 1018.5
20260902105518 22 178 3.2 9.7 0.00 0.00 0.00 94 1018.5
20260902105026 22 193 3.2 9.7 0.00 0.00 0.00 94 1018.6
20260902104600 22 184 3.2 11.3 0.00 0.00 0.00 94 1018.6
20260902104024 22 207 6.4 11.3 0.00 0.00 0.00 94 1018.7
20260902103529 22 167 4.8 12.9 0.00 0.00 0.00 94 1018.6
20260902103040 22 187 4.8 14.5 0.00 0.00 0.00 94 1018.6
20260902102520 21 183 6.4 14.5 0.00 0.00 0.00 94 1018.6
20260902102019 21 178 4.8 9.7 0.00 0.00 0.00 95 1018.6
20260902101549 21 174 3.2 9.7 0.00 0.00 0.00 95 1018.5
20260902101024 21 171 3.2 8.0 0.00 0.00 0.00 95 1018.5
20260902100522 21 195 3.2 9.7 0.00 0.00 0.00 95 1018.5
20260902100042 21 201 3.2 9.7 0.00 0.00 0.00 95 1018.4
20260902095520 21 187 3.2 8.0 0.00 0.00 0.00 94 1018.4
20260902095020 21 178 3.2 8.0 0.00 0.00 0.00 94 1018.5
20260902094542 21 178 3.2 8.0 0.00 0.00 0.00 94 1018.4
20260902094024 21 185 3.2 8.0 0.00 0.00 0.00 95 1018.5
20260902093524 21 171 3.2 8.0 0.00 0.00 0.00 95 1018.4
20260902093044 21 160 3.2 8.0 0.00 0.00 0.00 95 1018.5
20260902092524 21 178 3.2 8.0 0.00 0.00 0.00 94 1018.5
20260902092024 21 184 3.2 8.0 0.00 0.00 0.00 94 1018.4
20260902091542 21 196 3.2 8.0 0.00 0.00 0.00 94 1018.4
20260902091023 21 188 0.0 6.4 0.00 0.00 0.00 94 1018.5
20260902090526 21 193 1.6 8.0 0.00 0.00 0.00 94 1018.3
20260902090042 21 205 1.6 8.0 0.00 0.00 0.00 94 1018.3
20260902085525 21 178 1.6 8.0 0.00 0.00 0.00 94 1018.2
20260902085025 21 0 0.0 4.8 0.00 0.00 0.00 94 1018.3
20260902084539 21 239 0.0 3.2 0.00 0.00 0.00 94 1018.2
20260902084024 21 153 0.0 3.2 0.00 0.00 0.00 94 1018.1
20260902083532 21 0 0.0 3.2 0.00 0.00 0.00 94 1018.0
20260902083101 21 178 0.0 3.2 0.00 0.00 0.00 94 1018.1
20260902082521 21 153 0.0 1.6 0.00 0.00 0.00 94 1018.2
20260902082019 21 0 0.0 1.6 0.00 0.00 0.00 94 1018.0
20260902081542 21 0 0.0 1.6 0.00 0.00 0.00 94 1018.1
20260902081020 21 0 0.0 1.6 0.00 0.00 0.00 94 1018.0
20260902080525 21 0 0.0 1.6 0.00 0.00 0.00 93 1018.0
20260902080043 21 0 0.0 1.6 0.00 0.00 0.00 93 1018.1
20260902075524 21 0 0.0 3.2 0.00 0.00 0.00 93 1018.0
20260902075021 21 0 0.0 3.2 0.00 0.00 0.00 93 1018.0
20260902074541 21 0 0.0 6.4 0.00 0.00 0.00 93 1017.9
20260902074018 21 158 1.6 6.4 0.00 0.00 0.00 93 1017.9
20260902073522 21 178 0.0 3.2 0.00 0.00 0.00 93 1018.0
20260902073041 21 178 0.0 1.6 0.00 0.00 0.00 93 1017.9
20260902072524 21 0 0.0 1.6 0.00 0.00 0.00 93 1018.0
20260902072020 21 0 0.0 1.6 0.00 0.00 0.00 93 1017.9
20260902071544 21 137 0.0 1.6 0.00 0.00 0.00 93 1017.9
20260902071019 21 153 0.0 1.6 0.00 0.00 0.00 93 1018.0
20260902070521 21 0 0.0 1.6 0.00 0.00 0.00 92 1017.9
20260902070044 22 0 0.0 1.6 0.00 0.00 0.00 93 1017.9
20260902065529 22 0 0.0 1.6 0.00 0.00 0.00 93 1017.9
20260902065022 22 0 0.0 1.6 0.00 0.00 0.00 92 1018.0
20260902064545 22 0 0.0 3.2 0.00 0.00 0.00 92 1018.0
20260902064024 22 0 0.0 3.2 0.00 0.00 0.00 92 1018.0
20260902063523 22 0 0.0 3.2 0.00 0.00 0.00 92 1017.9
20260902063042 22 0 0.0 1.6 0.00 0.00 0.00 92 1018.0
20260902062520 22 0 0.0 1.6 0.00 0.00 0.00 91 1018.0
20260902062018 22 137 0.0 3.2 0.00 0.00 0.00 91 1018.0
20260902061546 22 0 0.0 3.2 0.00 0.00 0.00 91 1018.0
20260902061024 22 0 0.0 3.2 0.00 0.00 0.00 91 1018.0
20260902060519 22 178 0.0 3.2 0.00 0.00 0.00 91 1018.0
20260902060043 22 137 0.0 6.4 0.00 0.00 0.00 91 1018.0
20260902055518 22 178 1.6 6.4 0.00 0.00 0.00 91 1018.0
20260902055019 22 162 1.6 6.4 0.00 0.00 0.00 90 1018.0
20260902054543 22 165 1.6 4.8 0.00 0.00 0.00 90 1018.0
20260902054028 22 188 1.6 6.4 0.00 0.00 0.00 90 1018.0
20260902053530 22 178 1.6 6.4 0.00 0.00 0.00 90 1018.1
20260902053042 22 165 1.6 3.2 0.00 0.00 0.00 90 1018.1
20260902052523 22 153 0.0 3.2 0.00 0.00 0.00 90 1018.1
20260902052018 22 162 1.6 3.2 0.00 0.00 0.00 90 1018.0
20260902051545 22 153 0.0 3.2 0.00 0.00 0.00 90 1018.0
20260902051018 22 178 0.0 1.6 0.00 0.00 0.00 90 1018.1
20260902050522 22 0 0.0 3.2 0.00 0.00 0.00 89 1018.1
20260902050049 22 0 0.0 3.2 0.00 0.00 0.00 89 1018.0
20260902045518 22 0 0.0 3.2 0.00 0.00 0.00 89 1018.0
20260902045024 23 0 0.0 3.2 0.00 0.00 0.00 89 1018.0
20260902044548 23 137 0.0 3.2 0.00 0.00 0.00 88 1018.0
20260902044027 23 162 0.0 3.2 0.00 0.00 0.00 88 1018.1
20260902043519 23 0 0.0 3.2 0.00 0.00 0.00 87 1017.9
20260902043050 23 137 0.0 4.8 0.00 0.00 0.00 87 1018.0
20260902042520 23 178 1.6 4.8 0.00 0.00 0.00 86 1017.9
20260902042025 23 193 1.6 4.8 0.00 0.00 0.00 86 1018.1
20260902041541 23 162 1.6 3.2 0.00 0.00 0.00 86 1018.0
20260902041024 23 178 1.6 3.2 0.00 0.00 0.00 86 1018.0
20260902040528 23 178 1.6 3.2 0.00 0.00 0.00 86 1018.1
20260902040043 23 158 1.6 3.2 0.00 0.00 0.00 86 1018.1
20260902035518 23 178 1.6 3.2 0.00 0.00 0.00 86 1018.1
20260902035018 23 153 1.6 3.2 0.00 0.00 0.00 85 1018.1
20260902034544 23 178 1.6 3.2 0.00 0.00 0.00 85 1018.1
20260902034020 23 178 0.0 3.2 0.00 0.00 0.00 85 1018.0
20260902033519 23 178 1.6 3.2 0.00 0.00 0.00 85 1018.1
20260902033044 23 169 1.6 3.2 0.00 0.00 0.00 85 1018.1
20260902032518 23 153 1.6 3.2 0.00 0.00 0.00 85 1018.0
20260902032026 24 178 1.6 3.2 0.00 0.00 0.00 85 1018.0
20260902031542 24 162 1.6 3.2 0.00 0.00 0.00 85 1018.0
20260902031027 24 153 0.0 3.2 0.00 0.00 0.00 85 1018.0
20260902030521 24 153 0.0 1.6 0.00 0.00 0.00 84 1018.0
20260902030039 25 0 0.0 6.4 0.00 0.00 0.00 83 1018.1
20260902025519 25 146 0.0 6.4 0.00 0.00 0.00 82 1018.0
20260902025020 25 153 0.0 6.4 0.00 0.00 0.00 82 1018.0
20260902024544 25 0 1.6 8.0 0.00 0.00 0.00 81 1017.9
20260902024019 25 205 3.2 8.0 0.00 0.00 0.00 80 1017.9
20260902023519 25 169 3.2 8.0 0.00 0.00 0.00 79 1017.9
20260902023048 25 144 3.2 8.0 0.00 0.00 0.00 79 1017.9
20260902022535 25 171 3.2 8.0 0.00 0.00 0.00 79 1017.9
20260902022024 26 178 3.2 8.0 0.00 0.00 0.00 78 1017.9
20260902021541 26 193 3.2 8.0 0.00 0.00 0.00 78 1017.9
20260902021024 26 171 3.2 8.0 0.00 0.00 0.00 78 1017.9
20260902020519 26 196 3.2 6.4 0.00 0.00 0.00 77 1017.8
20260902020037 26 178 1.6 6.4 0.00 0.00 0.00 76 1017.8
20260902015518 26 178 3.2 6.4 0.00 0.00 0.00 75 1017.8
20260902015023 26 178 1.6 8.0 0.00 0.00 0.00 75 1017.8
20260902014545 26 157 3.2 8.0 0.00 0.00 0.00 74 1017.8
20260902014019 26 178 3.2 8.0 0.00 0.00 0.00 74 1017.9
20260902013522 27 193 3.2 8.0 0.00 0.00 0.00 74 1017.8
20260902013042 27 178 1.6 6.4 0.00 0.00 0.00 74 1017.8
20260902012519 27 178 1.6 6.4 0.00 0.00 0.00 73 1017.6
20260902012021 27 179 1.6 6.4 0.00 0.00 0.00 72 1017.6
20260902011552 27 188 1.6 6.4 0.00 0.00 0.00 72 1017.5